Time,TemperatureF,DewpointF,PressureIn,WindDirection,WindDirectionDegrees,WindSpeedMPH,WindSpeedGustMPH,Humidity,HourlyPrecipIn,Conditions,Clouds,dailyrainin,SoftwareType,DateUTC
2013-01-17 00:01:00,37.0,37.0,29.90,NW,315,3.5,7.9,100,0.00,,,0.00,Rainwise IP-100,2013-01-17 05:01:00,
2013-01-17 00:06:00,36.8,37.0,29.90,NW,315,4.0,11.2,100,0.00,,,0.00,Rainwise IP-100,2013-01-17 05:06:00,
2013-01-17 00:11:00,36.7,37.0,29.90,North,360,4.9,8.6,100,0.00,,,0.00,Rainwise IP-100,2013-01-17 05:11:00,
2013-01-17 00:16:00,36.6,37.0,29.90,NW,315,5.1,7.5,100,0.00,,,0.00,Rainwise IP-100,2013-01-17 05:16:00,
2013-01-17 00:21:00,36.6,37.0,29.90,NW,315,5.6,7.2,100,0.00,,,0.00,Rainwise IP-100,2013-01-17 05:21:00,
2013-01-17 00:26:00,36.5,37.0,29.90,NW,315,4.0,9.3,100,0.00,,,0.00,Rainwise IP-100,2013-01-17 05:26:00,
2013-01-17 00:31:00,36.5,37.0,29.89,NW,315,4.4,7.7,100,0.00,,,0.00,Rainwise IP-100,2013-01-17 05:31:00,
2013-01-17 00:36:00,36.5,37.0,29.90,NW,315,5.8,8.6,100,0.00,,,0.00,Rainwise IP-100,2013-01-17 05:36:00,
2013-01-17 00:41:00,36.5,37.0,29.90,NW,315,6.8,7.0,100,0.00,,,0.00,Rainwise IP-100,2013-01-17 05:41:00,
2013-01-17 00:46:00,36.5,37.0,29.90,NW,315,5.1,9.8,100,0.00,,,0.00,Rainwise IP-100,2013-01-17 05:46:00,
2013-01-17 00:51:00,36.5,37.0,29.90,North,360,8.2,9.8,100,0.00,,,0.00,Rainwise IP-100,2013-01-17 05:51:00,
2013-01-17 00:56:00,36.4,36.0,29.90,NW,315,3.0,8.2,100,0.00,,,0.00,Rainwise IP-100,2013-01-17 05:56:00,
2013-01-17 01:01:00,36.3,36.0,29.90,NW,315,4.0,6.8,100,0.00,,,0.00,Rainwise IP-100,2013-01-17 06:01:00,
2013-01-17 01:06:00,36.3,36.0,29.90,NW,315,4.2,5.6,100,0.00,,,0.00,Rainwise IP-100,2013-01-17 06:06:00,
2013-01-17 01:11:00,36.4,36.0,29.90,NW,315,4.0,6.1,100,0.00,,,0.00,Rainwise IP-100,2013-01-17 06:11:00,
2013-01-17 01:16:00,36.3,36.0,29.90,NW,315,2.6,6.5,100,0.00,,,0.00,Rainwise IP-100,2013-01-17 06:16:00,
2013-01-17 01:21:00,36.3,36.0,29.90,NW,315,8.9,9.3,100,0.00,,,0.00,Rainwise IP-100,2013-01-17 06:21:00,
2013-01-17 01:26:00,36.4,36.0,29.91,NW,315,3.7,10.5,100,0.00,,,0.00,Rainwise IP-100,2013-01-17 06:26:00,
2013-01-17 01:31:00,36.3,36.0,29.92,NW,315,2.8,8.4,100,0.00,,,0.00,Rainwise IP-100,2013-01-17 06:31:00,
2013-01-17 01:36:00,36.3,36.0,29.91,NW,315,7.0,8.2,100,0.00,,,0.00,Rainwise IP-100,2013-01-17 06:36:00,
2013-01-17 01:41:00,36.3,36.0,29.90,NW,315,6.1,8.2,100,0.00,,,0.00,Rainwise IP-100,2013-01-17 06:41:00,
2013-01-17 01:46:00,36.3,36.0,29.91,NW,315,2.6,7.9,100,0.00,,,0.00,Rainwise IP-100,2013-01-17 06:46:00,
2013-01-17 01:51:00,36.2,36.0,29.91,NW,315,5.4,8.9,100,0.00,,,0.00,Rainwise IP-100,2013-01-17 06:51:00,
2013-01-17 01:56:00,36.1,36.0,29.92,NW,315,4.0,7.0,100,0.00,,,0.00,Rainwise IP-100,2013-01-17 06:56:00,
2013-01-17 02:01:00,36.0,36.0,29.92,NW,315,2.8,7.2,100,0.00,,,0.00,Rainwise IP-100,2013-01-17 07:01:00,
2013-01-17 02:06:00,35.9,36.0,29.91,North,360,2.8,6.1,100,0.00,,,0.00,Rainwise IP-100,2013-01-17 07:06:00,
2013-01-17 02:11:00,35.9,36.0,29.90,North,360,3.0,5.4,100,0.00,,,0.00,Rainwise IP-100,2013-01-17 07:11:00,
2013-01-17 02:16:00,35.8,36.0,29.90,NW,315,2.8,4.2,100,0.00,,,0.00,Rainwise IP-100,2013-01-17 07:16:00,
2013-01-17 02:21:00,35.7,36.0,29.90,NW,315,1.2,4.4,100,0.00,,,0.00,Rainwise IP-100,2013-01-17 07:21:00,
2013-01-17 02:26:00,35.7,36.0,29.90,NW,315,3.0,6.8,100,0.00,,,0.00,Rainwise IP-100,2013-01-17 07:26:00,
2013-01-17 02:31:00,35.7,36.0,29.91,NW,315,4.4,5.8,100,0.00,,,0.00,Rainwise IP-100,2013-01-17 07:31:00,
2013-01-17 02:36:00,35.7,36.0,29.90,North,360,5.4,6.8,100,0.00,,,0.00,Rainwise IP-100,2013-01-17 07:36:00,
2013-01-17 02:41:00,35.7,36.0,29.90,NW,315,2.8,5.6,100,0.00,,,0.00,Rainwise IP-100,2013-01-17 07:41:00,
2013-01-17 02:46:00,35.7,36.0,29.91,North,360,4.7,5.6,100,0.00,,,0.00,Rainwise IP-100,2013-01-17 07:46:00,
2013-01-17 02:51:00,35.7,36.0,29.91,NW,315,2.8,7.5,100,0.00,,,0.00,Rainwise IP-100,2013-01-17 07:51:00,
2013-01-17 02:56:00,35.7,36.0,29.91,NW,315,2.8,7.7,100,0.00,,,0.00,Rainwise IP-100,2013-01-17 07:56:00,
2013-01-17 03:01:00,35.8,36.0,29.90,NW,315,3.3,7.5,100,0.00,,,0.00,Rainwise IP-100,2013-01-17 08:01:00,
2013-01-17 03:06:00,35.8,36.0,29.90,NW,315,3.0,5.1,100,0.00,,,0.00,Rainwise IP-100,2013-01-17 08:06:00,
2013-01-17 03:11:00,35.8,36.0,29.91,NW,315,2.6,6.1,100,0.00,,,0.00,Rainwise IP-100,2013-01-17 08:11:00,
2013-01-17 03:16:00,35.8,36.0,29.90,NW,315,4.2,6.5,100,0.00,,,0.00,Rainwise IP-100,2013-01-17 08:16:00,
2013-01-17 03:21:00,35.9,36.0,29.91,NW,315,5.1,6.3,100,0.00,,,0.00,Rainwise IP-100,2013-01-17 08:21:00,
2013-01-17 03:26:00,35.9,36.0,29.91,NW,315,2.8,7.2,100,0.00,,,0.00,Rainwise IP-100,2013-01-17 08:26:00,
2013-01-17 03:31:00,35.9,36.0,29.90,NW,315,3.0,6.5,100,0.00,,,0.00,Rainwise IP-100,2013-01-17 08:31:00,
2013-01-17 03:36:00,35.8,36.0,29.90,NW,315,1.6,7.2,100,0.00,,,0.00,Rainwise IP-100,2013-01-17 08:36:00,
2013-01-17 03:41:00,35.9,36.0,29.90,NW,315,2.1,5.6,100,0.00,,,0.00,Rainwise IP-100,2013-01-17 08:41:00,
2013-01-17 03:46:00,35.8,36.0,29.90,NW,315,3.3,7.0,100,0.00,,,0.00,Rainwise IP-100,2013-01-17 08:46:00,
2013-01-17 03:51:00,35.6,36.0,29.91,NW,315,2.8,8.4,100,0.00,,,0.00,Rainwise IP-100,2013-01-17 08:51:00,
2013-01-17 03:52:00,35.6,36.0,29.91,NW,315,2.6,8.4,100,0.00,,,0.00,Rainwise IP-100,2013-01-17 08:52:00,
2013-01-17 03:53:00,35.6,36.0,29.91,NW,315,4.2,6.1,100,0.00,,,0.00,Rainwise IP-100,2013-01-17 08:53:00,
2013-01-17 03:57:00,35.6,36.0,29.91,NW,315,2.3,5.8,100,0.00,,,0.00,Rainwise IP-100,2013-01-17 08:57:00,
2013-01-17 04:02:00,35.6,36.0,29.90,NW,315,5.1,6.3,100,0.00,,,0.00,Rainwise IP-100,2013-01-17 09:02:00,
2013-01-17 04:07:00,35.5,36.0,29.90,NW,315,0.0,7.9,100,0.00,,,0.00,Rainwise IP-100,2013-01-17 09:07:00,
2013-01-17 04:12:00,35.4,35.0,29.91,NW,315,5.4,5.6,100,0.00,,,0.00,Rainwise IP-100,2013-01-17 09:12:00,
2013-01-17 04:17:00,35.3,35.0,29.91,North,360,2.6,5.4,100,0.00,,,0.00,Rainwise IP-100,2013-01-17 09:17:00,
2013-01-17 04:22:00,35.1,35.0,29.91,North,360,2.1,4.2,100,0.00,,,0.00,Rainwise IP-100,2013-01-17 09:22:00,
2013-01-17 04:27:00,35.0,35.0,29.91,NW,315,1.4,5.1,100,0.00,,,0.00,Rainwise IP-100,2013-01-17 09:27:00,
2013-01-17 04:32:00,34.8,35.0,29.90,NW,315,1.4,4.0,100,0.00,,,0.00,Rainwise IP-100,2013-01-17 09:32:00,
2013-01-17 04:37:00,34.7,35.0,29.90,North,360,2.1,4.2,100,0.00,,,0.00,Rainwise IP-100,2013-01-17 09:37:00,
2013-01-17 04:42:00,34.6,35.0,29.91,NW,315,2.8,3.7,100,0.00,,,0.00,Rainwise IP-100,2013-01-17 09:42:00,
2013-01-17 04:47:00,34.5,35.0,29.91,NW,315,0.0,4.2,100,0.00,,,0.00,Rainwise IP-100,2013-01-17 09:47:00,
2013-01-17 04:52:00,34.3,35.0,29.91,NW,315,0.0,1.2,100,0.00,,,0.00,Rainwise IP-100,2013-01-17 09:52:00,
2013-01-17 04:57:00,34.0,35.0,29.90,North,360,0.0,2.1,100,0.00,,,0.00,Rainwise IP-100,2013-01-17 09:57:00,
2013-01-17 05:02:00,33.8,35.0,29.91,North,360,1.9,2.6,100,0.00,,,0.00,Rainwise IP-100,2013-01-17 10:02:00,
2013-01-17 05:07:00,33.7,35.0,29.91,North,360,0.0,2.1,100,0.00,,,0.00,Rainwise IP-100,2013-01-17 10:07:00,
2013-01-17 05:12:00,33.5,35.0,29.91,North,360,1.4,2.3,100,0.00,,,0.00,Rainwise IP-100,2013-01-17 10:12:00,
2013-01-17 05:17:00,33.2,33.0,29.91,North,360,0.0,1.6,100,0.00,,,0.00,Rainwise IP-100,2013-01-17 10:17:00,
2013-01-17 05:22:00,32.9,33.0,29.91,North,360,1.6,1.6,100,0.00,,,0.00,Rainwise IP-100,2013-01-17 10:22:00,
2013-01-17 05:27:00,32.8,33.0,29.91,North,360,0.0,1.9,100,0.00,,,0.00,Rainwise IP-100,2013-01-17 10:27:00,
2013-01-17 05:32:00,32.9,33.0,29.91,North,360,0.0,1.6,100,0.00,,,0.00,Rainwise IP-100,2013-01-17 10:32:00,
2013-01-17 05:37:00,32.9,33.0,29.92,North,360,1.6,2.6,100,0.00,,,0.00,Rainwise IP-100,2013-01-17 10:37:00,
2013-01-17 05:42:00,33.1,33.0,29.92,North,360,6.1,6.1,100,0.00,,,0.00,Rainwise IP-100,2013-01-17 10:42:00,
2013-01-17 05:47:00,33.5,35.0,29.92,NW,315,2.6,6.1,100,0.00,,,0.00,Rainwise IP-100,2013-01-17 10:47:00,
2013-01-17 05:52:00,33.7,35.0,29.92,NW,315,2.3,4.2,100,0.00,,,0.00,Rainwise IP-100,2013-01-17 10:52:00,
2013-01-17 05:57:00,33.8,35.0,29.92,NW,315,2.3,4.9,100,0.00,,,0.00,Rainwise IP-100,2013-01-17 10:57:00,
2013-01-17 06:02:00,34.1,35.0,29.92,NW,315,3.3,5.4,100,0.00,,,0.00,Rainwise IP-100,2013-01-17 11:02:00,
2013-01-17 06:07:00,34.3,35.0,29.92,NW,315,2.8,3.5,100,0.00,,,0.00,Rainwise IP-100,2013-01-17 11:07:00,
2013-01-17 06:12:00,34.4,35.0,29.93,NW,315,2.8,4.4,100,0.00,,,0.00,Rainwise IP-100,2013-01-17 11:12:00,
2013-01-17 06:17:00,34.5,35.0,29.93,NW,315,2.3,3.7,100,0.00,,,0.00,Rainwise IP-100,2013-01-17 11:17:00,
2013-01-17 06:22:00,34.6,35.0,29.93,NW,315,2.3,5.4,100,0.00,,,0.00,Rainwise IP-100,2013-01-17 11:22:00,
2013-01-17 06:27:00,34.7,35.0,29.94,North,360,1.9,3.7,100,0.00,,,0.00,Rainwise IP-100,2013-01-17 11:27:00,
2013-01-17 06:32:00,34.6,35.0,29.93,NW,315,4.0,5.1,100,0.00,,,0.00,Rainwise IP-100,2013-01-17 11:32:00,
2013-01-17 06:37:00,34.7,35.0,29.94,North,360,3.7,5.6,100,0.00,,,0.00,Rainwise IP-100,2013-01-17 11:37:00,
2013-01-17 06:42:00,34.7,35.0,29.94,NW,315,0.0,6.3,100,0.00,,,0.00,Rainwise IP-100,2013-01-17 11:42:00,
2013-01-17 06:47:00,34.7,35.0,29.93,NW,315,3.3,7.5,100,0.00,,,0.00,Rainwise IP-100,2013-01-17 11:47:00,
2013-01-17 06:52:00,34.7,35.0,29.94,North,360,6.5,10.0,99,0.00,,,0.00,Rainwise IP-100,2013-01-17 11:52:00,
2013-01-17 06:57:00,34.8,35.0,29.94,NW,315,4.9,7.7,99,0.00,,,0.00,Rainwise IP-100,2013-01-17 11:57:00,
2013-01-17 07:02:00,34.7,35.0,29.93,NW,315,3.7,7.2,99,0.00,,,0.00,Rainwise IP-100,2013-01-17 12:02:00,
2013-01-17 07:07:00,34.7,35.0,29.94,NW,315,2.8,10.0,99,0.00,,,0.00,Rainwise IP-100,2013-01-17 12:07:00,
2013-01-17 07:12:00,34.6,35.0,29.95,NW,315,5.6,7.2,99,0.00,,,0.00,Rainwise IP-100,2013-01-17 12:12:00,
2013-01-17 07:17:00,34.6,35.0,29.96,North,360,1.2,6.3,99,0.00,,,0.00,Rainwise IP-100,2013-01-17 12:17:00,
2013-01-17 07:22:00,34.6,35.0,29.96,NW,315,4.2,6.1,99,0.00,,,0.00,Rainwise IP-100,2013-01-17 12:22:00,
2013-01-17 07:27:00,34.5,35.0,29.96,NW,315,0.0,6.1,99,0.00,,,0.00,Rainwise IP-100,2013-01-17 12:27:00,
2013-01-17 07:32:00,34.6,35.0,29.97,North,360,5.6,8.4,99,0.00,,,0.00,Rainwise IP-100,2013-01-17 12:32:00,
2013-01-17 07:37:00,34.6,35.0,29.96,NW,315,1.6,7.0,99,0.00,,,0.00,Rainwise IP-100,2013-01-17 12:37:00,
2013-01-17 07:42:00,34.6,35.0,29.96,NW,315,3.3,7.2,98,0.00,,,0.00,Rainwise IP-100,2013-01-17 12:42:00,
2013-01-17 07:47:00,34.7,35.0,29.97,NW,315,1.9,5.8,98,0.00,,,0.00,Rainwise IP-100,2013-01-17 12:47:00,
2013-01-17 07:52:00,34.7,35.0,29.97,North,360,4.4,6.1,98,0.00,,,0.00,Rainwise IP-100,2013-01-17 12:52:00,
2013-01-17 07:57:00,34.8,33.0,29.99,NW,315,1.2,9.6,97,0.00,,,0.00,Rainwise IP-100,2013-01-17 12:57:00,
2013-01-17 08:02:00,35.1,33.0,30.00,NW,315,3.5,6.8,97,0.00,,,0.00,Rainwise IP-100,2013-01-17 13:02:00,
2013-01-17 08:07:00,35.4,33.0,29.99,North,360,6.5,6.5,97,0.00,,,0.00,Rainwise IP-100,2013-01-17 13:07:00,
2013-01-17 08:12:00,35.7,35.0,30.00,NW,315,7.7,7.7,97,0.00,,,0.00,Rainwise IP-100,2013-01-17 13:12:00,
2013-01-17 08:17:00,35.9,35.0,29.99,NW,315,3.5,9.3,96,0.00,,,0.00,Rainwise IP-100,2013-01-17 13:17:00,
2013-01-17 08:22:00,36.2,35.0,29.99,NW,315,4.4,12.1,95,0.00,,,0.00,Rainwise IP-100,2013-01-17 13:22:00,
2013-01-17 08:27:00,36.4,35.0,29.99,NNW,337,3.3,12.1,95,0.00,,,0.00,Rainwise IP-100,2013-01-17 13:27:00,
2013-01-17 08:32:00,36.5,36.0,30.00,WNW,292,8.9,14.2,94,0.00,,,0.00,Rainwise IP-100,2013-01-17 13:32:00,
2013-01-17 08:37:00,36.8,35.0,30.00,NW,315,8.6,11.2,93,0.00,,,0.00,Rainwise IP-100,2013-01-17 13:37:00,
2013-01-17 08:42:00,37.1,35.0,30.01,WNW,292,7.7,13.5,92,0.00,,,0.00,Rainwise IP-100,2013-01-17 13:42:00,
2013-01-17 08:47:00,37.3,35.0,30.01,WNW,292,4.0,11.4,91,0.00,,,0.00,Rainwise IP-100,2013-01-17 13:47:00,
2013-01-17 08:52:00,37.4,35.0,30.02,NW,315,3.3,10.7,91,0.00,,,0.00,Rainwise IP-100,2013-01-17 13:52:00,
2013-01-17 08:57:00,37.5,36.0,30.02,WNW,292,11.0,12.6,90,0.00,,,0.00,Rainwise IP-100,2013-01-17 13:57:00,
2013-01-17 09:02:00,37.7,35.0,30.02,WNW,292,9.6,13.8,89,0.00,,,0.00,Rainwise IP-100,2013-01-17 14:02:00,
2013-01-17 09:07:00,37.7,35.0,30.02,NW,315,6.8,9.8,88,0.00,,,0.00,Rainwise IP-100,2013-01-17 14:07:00,
2013-01-17 09:12:00,37.7,35.0,30.02,WNW,292,10.0,11.4,88,0.00,,,0.00,Rainwise IP-100,2013-01-17 14:12:00,
2013-01-17 09:17:00,37.9,35.0,30.02,NW,315,6.3,16.8,87,0.00,,,0.00,Rainwise IP-100,2013-01-17 14:17:00,
2013-01-17 09:22:00,38.1,35.0,30.03,WNW,292,11.4,12.8,86,0.00,,,0.00,Rainwise IP-100,2013-01-17 14:22:00,
2013-01-17 09:27:00,38.3,35.0,30.04,WNW,292,7.9,17.5,85,0.00,,,0.00,Rainwise IP-100,2013-01-17 14:27:00,
2013-01-17 09:32:00,38.5,35.0,30.04,NNW,337,8.9,13.1,84,0.00,,,0.00,Rainwise IP-100,2013-01-17 14:32:00,
2013-01-17 09:37:00,38.6,35.0,30.03,West,270,7.2,13.1,84,0.00,,,0.00,Rainwise IP-100,2013-01-17 14:37:00,
2013-01-17 09:42:00,38.6,35.0,30.02,WNW,292,8.4,11.7,83,0.00,,,0.00,Rainwise IP-100,2013-01-17 14:42:00,
2013-01-17 09:47:00,38.5,35.0,30.02,NW,315,6.5,17.7,82,0.00,,,0.00,Rainwise IP-100,2013-01-17 14:47:00,
2013-01-17 09:52:00,38.3,33.0,30.03,WNW,292,15.2,15.9,81,0.00,,,0.00,Rainwise IP-100,2013-01-17 14:52:00,
2013-01-17 09:57:00,38.3,33.0,30.03,WNW,292,1.2,15.2,81,0.00,,,0.00,Rainwise IP-100,2013-01-17 14:57:00,
2013-01-17 10:02:00,38.6,33.0,30.04,WNW,292,12.1,15.6,81,0.00,,,0.00,Rainwise IP-100,2013-01-17 15:02:00,
2013-01-17 10:07:00,39.0,33.0,30.03,WNW,292,8.9,14.0,80,0.00,,,0.00,Rainwise IP-100,2013-01-17 15:07:00,
2013-01-17 10:12:00,39.0,33.0,30.03,WNW,292,4.7,12.8,79,0.00,,,0.00,Rainwise IP-100,2013-01-17 15:12:00,
2013-01-17 10:17:00,38.9,33.0,30.03,WNW,292,7.7,16.8,79,0.00,,,0.00,Rainwise IP-100,2013-01-17 15:17:00,
2013-01-17 10:22:00,38.9,33.0,30.03,WNW,292,16.8,16.8,80,0.00,,,0.00,Rainwise IP-100,2013-01-17 15:22:00,
2013-01-17 10:27:00,39.0,33.0,30.03,WNW,292,9.8,17.5,79,0.00,,,0.00,Rainwise IP-100,2013-01-17 15:27:00,
2013-01-17 10:32:00,39.1,33.0,30.02,WNW,292,14.0,18.2,78,0.00,,,0.00,Rainwise IP-100,2013-01-17 15:32:00,
2013-01-17 10:37:00,39.3,33.0,30.03,West,270,5.8,15.4,78,0.00,,,0.00,Rainwise IP-100,2013-01-17 15:37:00,
2013-01-17 10:42:00,39.4,33.0,30.03,WNW,292,11.0,15.2,78,0.00,,,0.00,Rainwise IP-100,2013-01-17 15:42:00,
2013-01-17 10:47:00,39.5,35.0,30.03,WNW,292,9.6,13.5,78,0.00,,,0.00,Rainwise IP-100,2013-01-17 15:47:00,
2013-01-17 10:52:00,39.8,33.0,30.03,WNW,292,9.6,12.6,77,0.00,,,0.00,Rainwise IP-100,2013-01-17 15:52:00,
2013-01-17 10:57:00,40.2,33.0,30.02,WNW,292,4.7,16.3,76,0.00,,,0.00,Rainwise IP-100,2013-01-17 15:57:00,
2013-01-17 11:02:00,40.4,33.0,30.02,WNW,292,8.2,20.1,75,0.00,,,0.00,Rainwise IP-100,2013-01-17 16:02:00,
2013-01-17 11:07:00,40.5,33.0,30.01,WNW,292,6.3,17.3,74,0.00,,,0.00,Rainwise IP-100,2013-01-17 16:07:00,
2013-01-17 11:12:00,40.6,33.0,30.02,NNE,22,0.0,21.0,73,0.00,,,0.00,Rainwise IP-100,2013-01-17 16:12:00,
2013-01-17 11:17:00,40.8,33.0,30.01,WNW,292,15.2,21.7,72,0.00,,,0.00,Rainwise IP-100,2013-01-17 16:17:00,
2013-01-17 11:22:00,40.7,33.0,30.01,WNW,292,4.4,17.3,72,0.00,,,0.00,Rainwise IP-100,2013-01-17 16:22:00,
2013-01-17 11:27:00,40.4,32.0,30.01,WNW,292,7.9,16.3,71,0.00,,,0.00,Rainwise IP-100,2013-01-17 16:27:00,
2013-01-17 11:32:00,40.2,32.0,30.00,WNW,292,13.1,18.2,71,0.00,,,0.00,Rainwise IP-100,2013-01-17 16:32:00,
2013-01-17 11:37:00,40.1,32.0,30.00,WNW,292,7.5,16.8,71,0.00,,,0.00,Rainwise IP-100,2013-01-17 16:37:00,
2013-01-17 11:42:00,40.2,32.0,30.00,WNW,292,12.6,15.2,71,0.00,,,0.00,Rainwise IP-100,2013-01-17 16:42:00,
2013-01-17 11:47:00,40.2,32.0,30.00,WNW,292,12.8,20.1,70,0.00,,,0.00,Rainwise IP-100,2013-01-17 16:47:00,
2013-01-17 11:52:00,40.1,32.0,29.99,NW,315,14.2,15.9,70,0.00,,,0.00,Rainwise IP-100,2013-01-17 16:52:00,
2013-01-17 11:57:00,40.2,32.0,30.00,WNW,292,14.2,18.0,70,0.00,,,0.00,Rainwise IP-100,2013-01-17 16:57:00,
2013-01-17 12:02:00,40.2,31.0,30.00,WNW,292,14.5,18.7,69,0.00,,,0.00,Rainwise IP-100,2013-01-17 17:02:00,
2013-01-17 12:07:00,40.2,31.0,30.00,WNW,292,7.5,16.1,69,0.00,,,0.00,Rainwise IP-100,2013-01-17 17:07:00,
2013-01-17 12:12:00,40.2,31.0,30.00,West,270,3.3,13.5,69,0.00,,,0.00,Rainwise IP-100,2013-01-17 17:12:00,
2013-01-17 12:17:00,40.3,31.0,30.00,WNW,292,14.5,14.5,69,0.00,,,0.00,Rainwise IP-100,2013-01-17 17:17:00,
2013-01-17 12:22:00,40.4,31.0,29.99,WNW,292,12.8,15.2,68,0.00,,,0.00,Rainwise IP-100,2013-01-17 17:22:00,
2013-01-17 12:27:00,40.6,32.0,30.01,WNW,292,8.4,16.8,68,0.00,,,0.00,Rainwise IP-100,2013-01-17 17:27:00,
2013-01-17 12:32:00,40.8,31.0,30.01,NNW,337,10.5,16.1,67,0.00,,,0.00,Rainwise IP-100,2013-01-17 17:32:00,
2013-01-17 12:37:00,40.9,31.0,30.00,WSW,247,3.5,13.8,67,0.00,,,0.00,Rainwise IP-100,2013-01-17 17:37:00,
2013-01-17 12:42:00,41.1,31.0,30.01,WNW,292,4.0,12.1,67,0.00,,,0.00,Rainwise IP-100,2013-01-17 17:42:00,
2013-01-17 12:47:00,41.4,31.0,30.01,WNW,292,4.9,13.5,66,0.00,,,0.00,Rainwise IP-100,2013-01-17 17:47:00,
2013-01-17 12:52:00,41.5,32.0,30.01,WNW,292,9.8,11.7,66,0.00,,,0.00,Rainwise IP-100,2013-01-17 17:52:00,
2013-01-17 12:57:00,41.4,31.0,30.01,WNW,292,9.3,12.1,66,0.00,,,0.00,Rainwise IP-100,2013-01-17 17:57:00,
2013-01-17 13:02:00,41.1,31.0,30.02,NNW,337,10.7,10.7,66,0.00,,,0.00,Rainwise IP-100,2013-01-17 18:02:00,
2013-01-17 13:07:00,41.0,31.0,30.01,WNW,292,7.5,13.1,66,0.00,,,0.00,Rainwise IP-100,2013-01-17 18:07:00,
2013-01-17 13:12:00,40.9,31.0,30.01,WNW,292,3.3,10.7,66,0.00,,,0.00,Rainwise IP-100,2013-01-17 18:12:00,
2013-01-17 13:17:00,40.9,31.0,30.02,WNW,292,3.7,12.4,67,0.00,,,0.00,Rainwise IP-100,2013-01-17 18:17:00,
2013-01-17 13:22:00,40.8,31.0,30.03,WNW,292,14.0,14.0,67,0.00,,,0.00,Rainwise IP-100,2013-01-17 18:22:00,
2013-01-17 13:27:00,40.6,31.0,30.03,WNW,292,6.1,14.0,67,0.00,,,0.00,Rainwise IP-100,2013-01-17 18:27:00,
2013-01-17 13:32:00,40.7,31.0,30.03,NW,315,6.8,8.9,67,0.00,,,0.00,Rainwise IP-100,2013-01-17 18:32:00,
2013-01-17 13:37:00,41.0,31.0,30.03,WNW,292,9.6,9.6,67,0.00,,,0.00,Rainwise IP-100,2013-01-17 18:37:00,
2013-01-17 13:42:00,41.2,31.0,30.02,West,270,4.2,9.6,67,0.00,,,0.00,Rainwise IP-100,2013-01-17 18:42:00,
2013-01-17 13:47:00,41.5,32.0,30.01,NNW,337,1.9,10.0,67,0.00,,,0.00,Rainwise IP-100,2013-01-17 18:47:00,
2013-01-17 13:52:00,41.8,32.0,30.02,WNW,292,5.4,14.9,67,0.00,,,0.00,Rainwise IP-100,2013-01-17 18:52:00,
2013-01-17 13:57:00,42.0,32.0,30.01,WNW,292,5.8,16.3,66,0.00,,,0.00,Rainwise IP-100,2013-01-17 18:57:00,
2013-01-17 14:02:00,42.4,32.0,30.02,NE,45,0.0,11.2,65,0.00,,,0.00,Rainwise IP-100,2013-01-17 19:02:00,
2013-01-17 14:07:00,42.4,31.0,30.01,NW,315,11.7,16.6,63,0.00,,,0.00,Rainwise IP-100,2013-01-17 19:07:00,
2013-01-17 14:12:00,42.1,31.0,30.02,WNW,292,11.2,17.0,63,0.00,,,0.00,Rainwise IP-100,2013-01-17 19:12:00,
2013-01-17 14:17:00,41.8,31.0,30.03,SE,135,2.6,15.9,62,0.00,,,0.00,Rainwise IP-100,2013-01-17 19:17:00,
2013-01-17 14:22:00,41.8,31.0,30.03,WSW,247,6.1,12.4,62,0.00,,,0.00,Rainwise IP-100,2013-01-17 19:22:00,
2013-01-17 14:27:00,41.8,31.0,30.04,WNW,292,11.0,13.3,63,0.00,,,0.00,Rainwise IP-100,2013-01-17 19:27:00,
2013-01-17 14:32:00,41.7,31.0,30.04,WNW,292,4.7,16.1,63,0.00,,,0.00,Rainwise IP-100,2013-01-17 19:32:00,
2013-01-17 14:37:00,41.6,31.0,30.04,WNW,292,9.8,13.1,63,0.00,,,0.00,Rainwise IP-100,2013-01-17 19:37:00,
2013-01-17 14:42:00,41.5,31.0,30.03,WNW,292,8.6,13.3,64,0.00,,,0.00,Rainwise IP-100,2013-01-17 19:42:00,
2013-01-17 14:47:00,41.4,31.0,30.03,NNW,337,3.0,13.8,64,0.00,,,0.00,Rainwise IP-100,2013-01-17 19:47:00,
2013-01-17 14:52:00,41.4,31.0,30.03,WNW,292,6.3,13.5,64,0.00,,,0.00,Rainwise IP-100,2013-01-17 19:52:00,
2013-01-17 14:57:00,41.2,31.0,30.04,WNW,292,4.4,11.7,65,0.00,,,0.00,Rainwise IP-100,2013-01-17 19:57:00,
2013-01-17 15:02:00,41.2,31.0,30.04,WNW,292,4.7,11.0,65,0.00,,,0.00,Rainwise IP-100,2013-01-17 20:02:00,
2013-01-17 15:07:00,41.3,31.0,30.04,WNW,292,4.4,10.5,65,0.00,,,0.00,Rainwise IP-100,2013-01-17 20:07:00,
2013-01-17 15:12:00,41.2,31.0,30.04,WNW,292,0.0,10.3,65,0.00,,,0.00,Rainwise IP-100,2013-01-17 20:12:00,
2013-01-17 15:17:00,41.2,31.0,30.05,WNW,292,4.4,7.2,66,0.00,,,0.00,Rainwise IP-100,2013-01-17 20:17:00,
2013-01-17 15:22:00,41.2,31.0,30.05,WNW,292,3.5,7.2,66,0.00,,,0.00,Rainwise IP-100,2013-01-17 20:22:00,
2013-01-17 15:27:00,41.2,31.0,30.05,WNW,292,2.1,4.7,66,0.00,,,0.00,Rainwise IP-100,2013-01-17 20:27:00,
2013-01-17 15:32:00,41.2,31.0,30.05,WNW,292,0.0,5.1,66,0.00,,,0.00,Rainwise IP-100,2013-01-17 20:32:00,
2013-01-17 15:37:00,41.2,31.0,30.05,WNW,292,1.9,4.4,67,0.00,,,0.00,Rainwise IP-100,2013-01-17 20:37:00,
2013-01-17 15:42:00,41.2,31.0,30.05,WNW,292,2.8,4.9,67,0.00,,,0.00,Rainwise IP-100,2013-01-17 20:42:00,
2013-01-17 15:47:00,41.1,31.0,30.05,WNW,292,3.0,4.7,67,0.00,,,0.00,Rainwise IP-100,2013-01-17 20:47:00,
2013-01-17 15:52:00,41.1,32.0,30.05,WNW,292,4.0,4.0,68,0.00,,,0.00,Rainwise IP-100,2013-01-17 20:52:00,
2013-01-17 15:57:00,41.1,32.0,30.06,WNW,292,1.6,4.2,68,0.00,,,0.00,Rainwise IP-100,2013-01-17 20:57:00,
2013-01-17 16:02:00,41.0,32.0,30.06,WNW,292,2.8,4.0,68,0.00,,,0.00,Rainwise IP-100,2013-01-17 21:02:00,
2013-01-17 16:07:00,41.0,32.0,30.06,WNW,292,1.6,4.0,69,0.00,,,0.00,Rainwise IP-100,2013-01-17 21:07:00,
2013-01-17 16:12:00,40.9,32.0,30.06,WNW,292,1.4,2.6,70,0.00,,,0.00,Rainwise IP-100,2013-01-17 21:12:00,
2013-01-17 16:17:00,40.8,32.0,30.06,WNW,292,0.0,1.9,70,0.00,,,0.00,Rainwise IP-100,2013-01-17 21:17:00,
2013-01-17 16:22:00,40.7,32.0,30.06,WNW,292,0.0,1.2,70,0.00,,,0.00,Rainwise IP-100,2013-01-17 21:22:00,
2013-01-17 16:27:00,40.6,32.0,30.06,WNW,292,1.6,2.8,70,0.00,,,0.00,Rainwise IP-100,2013-01-17 21:27:00,
2013-01-17 16:32:00,40.5,32.0,30.06,WNW,292,1.6,1.9,70,0.00,,,0.00,Rainwise IP-100,2013-01-17 21:32:00,
2013-01-17 16:37:00,40.3,32.0,30.06,WNW,292,1.4,2.3,72,0.00,,,0.00,Rainwise IP-100,2013-01-17 21:37:00,
2013-01-17 16:42:00,40.1,32.0,30.06,WNW,292,2.8,2.8,73,0.00,,,0.00,Rainwise IP-100,2013-01-17 21:42:00,
2013-01-17 16:47:00,40.0,32.0,30.07,WNW,292,2.1,4.7,73,0.00,,,0.00,Rainwise IP-100,2013-01-17 21:47:00,
2013-01-17 16:52:00,40.0,32.0,30.07,WNW,292,2.6,3.7,73,0.00,,,0.00,Rainwise IP-100,2013-01-17 21:52:00,
2013-01-17 16:57:00,40.0,32.0,30.07,WNW,292,3.7,4.9,72,0.00,,,0.00,Rainwise IP-100,2013-01-17 21:57:00,
2013-01-17 17:02:00,40.0,32.0,30.07,WNW,292,3.5,5.1,71,0.00,,,0.00,Rainwise IP-100,2013-01-17 22:02:00,
2013-01-17 17:07:00,40.0,32.0,30.08,WNW,292,4.2,5.6,71,0.00,,,0.00,Rainwise IP-100,2013-01-17 22:07:00,
2013-01-17 17:12:00,39.9,32.0,30.08,WNW,292,2.3,4.7,70,0.00,,,0.00,Rainwise IP-100,2013-01-17 22:12:00,
2013-01-17 17:17:00,39.9,31.0,30.08,WNW,292,3.7,4.4,69,0.00,,,0.00,Rainwise IP-100,2013-01-17 22:17:00,
2013-01-17 17:22:00,39.7,31.0,30.09,West,270,3.0,4.9,68,0.00,,,0.00,Rainwise IP-100,2013-01-17 22:22:00,
2013-01-17 17:27:00,39.7,31.0,30.09,West,270,1.9,3.3,67,0.00,,,0.00,Rainwise IP-100,2013-01-17 22:27:00,
2013-01-17 17:32:00,39.7,31.0,30.08,West,270,0.0,3.5,67,0.00,,,0.00,Rainwise IP-100,2013-01-17 22:32:00,
2013-01-17 17:37:00,39.6,31.0,30.08,West,270,0.0,2.8,67,0.00,,,0.00,Rainwise IP-100,2013-01-17 22:37:00,
2013-01-17 17:42:00,39.5,31.0,30.08,West,270,1.4,1.9,67,0.00,,,0.00,Rainwise IP-100,2013-01-17 22:42:00,
2013-01-17 17:47:00,39.3,29.0,30.08,West,270,1.9,1.9,67,0.00,,,0.00,Rainwise IP-100,2013-01-17 22:47:00,
2013-01-17 17:52:00,39.0,31.0,30.08,West,270,1.6,2.3,72,0.00,,,0.00,Rainwise IP-100,2013-01-17 22:52:00,
2013-01-17 17:57:00,38.7,32.0,30.09,West,270,1.6,2.1,73,0.00,,,0.00,Rainwise IP-100,2013-01-17 22:57:00,
2013-01-17 18:02:00,38.7,31.0,30.09,West,270,0.0,3.0,70,0.00,,,0.00,Rainwise IP-100,2013-01-17 23:02:00,
2013-01-17 18:07:00,38.7,31.0,30.08,West,270,1.4,1.6,69,0.00,,,0.00,Rainwise IP-100,2013-01-17 23:07:00,
2013-01-17 18:12:00,38.5,31.0,30.09,West,270,1.9,2.3,71,0.00,,,0.00,Rainwise IP-100,2013-01-17 23:12:00,
2013-01-17 18:17:00,38.1,31.0,30.10,West,270,1.4,1.9,76,0.00,,,0.00,Rainwise IP-100,2013-01-17 23:17:00,
2013-01-17 18:22:00,37.9,32.0,30.10,West,270,2.8,3.0,78,0.00,,,0.00,Rainwise IP-100,2013-01-17 23:22:00,
2013-01-17 18:27:00,38.1,31.0,30.10,West,270,1.9,4.2,75,0.00,,,0.00,Rainwise IP-100,2013-01-17 23:27:00,
2013-01-17 18:32:00,38.5,31.0,30.09,West,270,0.0,2.6,71,0.00,,,0.00,Rainwise IP-100,2013-01-17 23:32:00,
2013-01-17 18:37:00,38.6,31.0,30.09,West,270,2.6,2.8,70,0.00,,,0.00,Rainwise IP-100,2013-01-17 23:37:00,
2013-01-17 18:42:00,38.6,31.0,30.09,West,270,1.2,2.8,70,0.00,,,0.00,Rainwise IP-100,2013-01-17 23:42:00,
2013-01-17 18:47:00,38.5,31.0,30.10,West,270,2.8,2.8,70,0.00,,,0.00,Rainwise IP-100,2013-01-17 23:47:00,
2013-01-17 18:52:00,38.3,29.0,30.10,West,270,2.1,2.8,70,0.00,,,0.00,Rainwise IP-100,2013-01-17 23:52:00,
2013-01-17 18:57:00,38.3,29.0,30.09,West,270,0.0,2.6,70,0.00,,,0.00,Rainwise IP-100,2013-01-17 23:57:00,
2013-01-17 19:02:00,38.3,29.0,30.10,West,270,1.2,2.6,70,0.00,,,0.00,Rainwise IP-100,2013-01-18 00:02:00,
2013-01-17 19:07:00,38.2,29.0,30.10,West,270,0.0,1.4,71,0.00,,,0.00,Rainwise IP-100,2013-01-18 00:07:00,
2013-01-17 19:12:00,38.2,29.0,30.09,West,270,2.6,2.8,71,0.00,,,0.00,Rainwise IP-100,2013-01-18 00:12:00,
2013-01-17 19:17:00,38.0,31.0,30.09,West,270,1.9,3.0,72,0.00,,,0.00,Rainwise IP-100,2013-01-18 00:17:00,
2013-01-17 19:22:00,37.9,31.0,30.09,West,270,1.6,2.6,72,0.00,,,0.00,Rainwise IP-100,2013-01-18 00:22:00,
2013-01-17 19:27:00,37.9,29.0,30.08,West,270,0.0,1.9,71,0.00,,,0.00,Rainwise IP-100,2013-01-18 00:27:00,
2013-01-17 19:32:00,37.7,31.0,30.09,West,270,2.6,2.6,74,0.00,,,0.00,Rainwise IP-100,2013-01-18 00:32:00,
2013-01-17 19:37:00,37.4,31.0,30.09,West,270,2.3,2.8,78,0.00,,,0.00,Rainwise IP-100,2013-01-18 00:37:00,
2013-01-17 19:42:00,37.2,31.0,30.09,West,270,1.4,2.8,78,0.00,,,0.00,Rainwise IP-100,2013-01-18 00:42:00,
2013-01-17 19:47:00,37.3,29.0,30.10,West,270,2.3,2.3,74,0.00,,,0.00,Rainwise IP-100,2013-01-18 00:47:00,
2013-01-17 19:52:00,37.6,31.0,30.09,WNW,292,0.0,2.8,73,0.00,,,0.00,Rainwise IP-100,2013-01-18 00:52:00,
2013-01-17 19:57:00,37.6,31.0,30.08,WNW,292,2.8,2.8,73,0.00,,,0.00,Rainwise IP-100,2013-01-18 00:57:00,
2013-01-17 20:02:00,37.6,31.0,30.09,WNW,292,1.4,4.2,73,0.00,,,0.00,Rainwise IP-100,2013-01-18 01:02:00,
2013-01-17 20:07:00,37.7,31.0,30.09,WNW,292,1.6,3.3,72,0.00,,,0.00,Rainwise IP-100,2013-01-18 01:07:00,
2013-01-17 20:12:00,37.7,31.0,30.09,WNW,292,2.1,3.0,73,0.00,,,0.00,Rainwise IP-100,2013-01-18 01:12:00,
2013-01-17 20:17:00,37.5,31.0,30.08,WNW,292,2.3,3.3,74,0.00,,,0.00,Rainwise IP-100,2013-01-18 01:17:00,
2013-01-17 20:22:00,37.4,31.0,30.08,NW,315,6.3,6.3,76,0.00,,,0.00,Rainwise IP-100,2013-01-18 01:22:00,
2013-01-17 20:27:00,37.4,31.0,30.08,NNW,337,5.1,8.2,76,0.00,,,0.00,Rainwise IP-100,2013-01-18 01:27:00,
2013-01-17 20:32:00,37.7,31.0,30.08,NNW,337,4.4,7.5,74,0.00,,,0.00,Rainwise IP-100,2013-01-18 01:32:00,
2013-01-17 20:37:00,37.8,31.0,30.08,NNW,337,4.4,7.9,72,0.00,,,0.00,Rainwise IP-100,2013-01-18 01:37:00,
2013-01-17 20:42:00,37.8,29.0,30.08,NNW,337,6.8,10.0,71,0.00,,,0.00,Rainwise IP-100,2013-01-18 01:42:00,
2013-01-17 20:47:00,38.0,29.0,30.08,NW,315,6.5,10.0,70,0.00,,,0.00,Rainwise IP-100,2013-01-18 01:47:00,
2013-01-17 20:52:00,38.0,29.0,30.08,NNW,337,6.3,8.6,69,0.00,,,0.00,Rainwise IP-100,2013-01-18 01:52:00,
2013-01-17 20:57:00,38.0,29.0,30.08,NNW,337,5.4,6.8,69,0.00,,,0.00,Rainwise IP-100,2013-01-18 01:57:00,
2013-01-17 21:02:00,37.9,29.0,30.08,NNW,337,3.0,7.2,69,0.00,,,0.00,Rainwise IP-100,2013-01-18 02:02:00,
2013-01-17 21:07:00,37.8,29.0,30.09,NW,315,4.2,9.3,69,0.00,,,0.00,Rainwise IP-100,2013-01-18 02:07:00,
2013-01-17 21:12:00,37.6,29.0,30.08,NNW,337,8.4,9.1,69,0.00,,,0.00,Rainwise IP-100,2013-01-18 02:12:00,
2013-01-17 21:17:00,37.5,29.0,30.08,NNW,337,6.5,9.8,69,0.00,,,0.00,Rainwise IP-100,2013-01-18 02:17:00,
2013-01-17 21:22:00,37.5,29.0,30.08,WNW,292,6.3,10.0,68,0.00,,,0.00,Rainwise IP-100,2013-01-18 02:22:00,
2013-01-17 21:27:00,37.4,28.0,30.09,NW,315,5.8,12.8,68,0.00,,,0.00,Rainwise IP-100,2013-01-18 02:27:00,
2013-01-17 21:32:00,37.3,28.0,30.07,NNW,337,6.3,9.6,68,0.00,,,0.00,Rainwise IP-100,2013-01-18 02:32:00,
2013-01-17 21:37:00,37.2,28.0,30.08,NW,315,5.4,10.7,67,0.00,,,0.00,Rainwise IP-100,2013-01-18 02:37:00,
2013-01-17 21:42:00,37.1,28.0,30.09,WNW,292,8.6,10.5,67,0.00,,,0.00,Rainwise IP-100,2013-01-18 02:42:00,
2013-01-17 21:47:00,37.0,28.0,30.08,NW,315,4.9,10.3,67,0.00,,,0.00,Rainwise IP-100,2013-01-18 02:47:00,
2013-01-17 21:52:00,36.8,28.0,30.08,NNW,337,7.7,11.2,68,0.00,,,0.00,Rainwise IP-100,2013-01-18 02:52:00,
2013-01-17 21:57:00,36.8,28.0,30.08,NW,315,6.1,11.0,68,0.00,,,0.00,Rainwise IP-100,2013-01-18 02:57:00,
2013-01-17 22:02:00,36.7,28.0,30.08,NW,315,8.4,10.7,67,0.00,,,0.00,Rainwise IP-100,2013-01-18 03:02:00,
2013-01-17 22:07:00,36.7,28.0,30.08,NNE,22,4.2,8.4,68,0.00,,,0.00,Rainwise IP-100,2013-01-18 03:07:00,
2013-01-17 22:12:00,36.7,28.0,30.08,NNW,337,0.0,14.0,69,0.00,,,0.00,Rainwise IP-100,2013-01-18 03:12:00,
2013-01-17 22:17:00,36.6,29.0,30.08,NNW,337,2.1,10.5,72,0.00,,,0.00,Rainwise IP-100,2013-01-18 03:17:00,
2013-01-17 22:22:00,36.4,29.0,30.08,NE,45,0.0,9.6,74,0.00,,,0.00,Rainwise IP-100,2013-01-18 03:22:00,
2013-01-17 22:27:00,36.2,29.0,30.08,NNE,22,3.7,10.7,76,0.00,,,0.00,Rainwise IP-100,2013-01-18 03:27:00,
2013-01-17 22:32:00,35.9,29.0,30.08,NNE,22,3.0,8.9,77,0.00,,,0.00,Rainwise IP-100,2013-01-18 03:32:00,
2013-01-17 22:37:00,35.7,29.0,30.08,NNW,337,3.3,8.6,77,0.00,,,0.00,Rainwise IP-100,2013-01-18 03:37:00,
2013-01-17 22:42:00,35.6,29.0,30.08,NNE,22,0.0,6.5,77,0.00,,,0.00,Rainwise IP-100,2013-01-18 03:42:00,
2013-01-17 22:47:00,35.6,29.0,30.08,NW,315,1.6,10.5,78,0.00,,,0.00,Rainwise IP-100,2013-01-18 03:47:00,
2013-01-17 22:52:00,35.6,29.0,30.07,NNW,337,0.0,8.4,77,0.00,,,0.00,Rainwise IP-100,2013-01-18 03:52:00,
2013-01-17 22:57:00,35.6,29.0,30.07,WNW,292,4.9,9.8,77,0.00,,,0.00,Rainwise IP-100,2013-01-18 03:57:00,
2013-01-17 23:02:00,35.5,29.0,30.07,WNW,292,1.6,11.0,76,0.00,,,0.00,Rainwise IP-100,2013-01-18 04:02:00,
2013-01-17 23:07:00,35.5,29.0,30.06,WNW,292,1.6,12.6,76,0.00,,,0.00,Rainwise IP-100,2013-01-18 04:07:00,
2013-01-17 23:12:00,35.4,28.0,30.05,NNW,337,2.8,8.9,76,0.00,,,0.00,Rainwise IP-100,2013-01-18 04:12:00,
2013-01-17 23:17:00,35.3,28.0,30.03,NNW,337,7.9,12.1,76,0.00,,,0.00,Rainwise IP-100,2013-01-18 04:17:00,
2013-01-17 23:22:00,35.1,28.0,30.03,NNW,337,1.2,11.7,75,0.00,,,0.00,Rainwise IP-100,2013-01-18 04:22:00,
2013-01-17 23:27:00,34.9,28.0,30.02,NNE,22,10.5,10.5,75,0.00,,,0.00,Rainwise IP-100,2013-01-18 04:27:00,
2013-01-17 23:32:00,34.8,28.0,30.02,NW,315,7.2,11.0,74,0.00,,,0.00,Rainwise IP-100,2013-01-18 04:32:00,
2013-01-17 23:37:00,34.6,28.0,30.03,WNW,292,4.2,12.6,73,0.00,,,0.00,Rainwise IP-100,2013-01-18 04:37:00,
2013-01-17 23:42:00,34.5,28.0,30.04,NNW,337,9.6,16.8,73,0.00,,,0.00,Rainwise IP-100,2013-01-18 04:42:00,
2013-01-17 23:47:00,34.4,28.0,30.06,NNW,337,11.0,16.8,73,0.00,,,0.00,Rainwise IP-100,2013-01-18 04:47:00,
2013-01-17 23:52:00,34.3,28.0,30.07,NNW,337,6.8,13.3,73,0.00,,,0.00,Rainwise IP-100,2013-01-18 04:52:00,
2013-01-17 23:57:00,34.3,26.0,30.08,NNW,337,12.8,15.2,72,0.00,,,0.00,Rainwise IP-100,2013-01-18 04:57:00,